Wiscasset, ME

11:40 PM EST on February 07, 2016 (GMT -0500)
Wiscasset

Weather History for KIWI - September, 2013

Change the Weather History Date:

Sunday, September 22, 2013

  Actual Average Record
Temperature  
Mean Temperature 61 °F -  
Max Temperature 71 °F 65 °F 77 °F (2002)
Min Temperature 53 °F 44 °F 34 °F (1997)
Degree Days  
Heating Degree Days 4    
Growing Degree Days 11 (Base 50)    
Moisture  
Dew Point 60 °F    
Average Humidity 86    
Maximum Humidity 97    
Minimum Humidity 67    
Precipitation  
Precipitation 0.31 in - - ()
Sea Level Pressure  
Sea Level Pressure 29.67 in    
Wind  
Wind Speed 8 mph (SSW)    
Max Wind Speed 16 mph    
Max Gust Speed 26 mph    
Visibility 9 miles    
Events Rain , Thunderstorm    
Averages and records for this station are not official NWS values.
T = Trace of Precipitation, MM = Missing Value Source: NWS Daily Summary

Daily Weather History Graph

Daily Weather History Graph

Search for Another Location

Airport or City:

Trip Planner

Search our weather history database for the weather conditions in past years. The results will help you decide how hot, cold, wet, or windy it might be!

Date:

Astronomy

Sep. 22, 2013 Rise Set
Actual Time 6:26 AM EDT 6:35 PM EDT
Civil Twilight 5:57 AM EDT 7:04 PM EDT
Nautical Twilight 5:23 AM EDT 7:38 PM EDT
Astronomical Twilight 4:49 AM EDT 8:12 PM EDT
Moon 8:15 PM EDT (9/22) 9:51 AM EDT (9/22)
Length of Visible Light 13h 07m
Length of Day
12h 09m
Waning Gibbous, 89% of the Moon is Illuminated
Sep 22
Waning Gibbous
Sep 26
Last Quarter
Oct 4
New
Oct 11
First Quarter
Oct 18
Full

Hourly Weather History & Observations

Time (EDT) Temp. Dew Point Humidity Pressure Visibility Wind Dir Wind Speed Gust Speed Precip Events Conditions
12:53 AM 64.0 °F 59.0 °F 84% 29.77 in 10.0 mi South 6.9 mph - N/A   Overcast
1:05 AM 64.4 °F 59.0 °F 83% 29.76 in 10.0 mi Variable 5.8 mph - N/A   Mostly Cloudy
1:53 AM 63.0 °F 60.1 °F 90% 29.74 in 10.0 mi South 8.1 mph - N/A   Mostly Cloudy
2:20 AM 64.4 °F 60.8 °F 88% 29.73 in 10.0 mi South 8.1 mph - N/A   Overcast
2:49 AM 64.4 °F 60.8 °F 88% 29.71 in 10.0 mi Variable 5.8 mph - N/A   Overcast
2:53 AM 64.0 °F 61.0 °F 90% 29.71 in 10.0 mi South 5.8 mph - N/A   Overcast
3:03 AM 64.4 °F 62.6 °F 94% 29.70 in 10.0 mi South 6.9 mph - N/A   Overcast
3:20 AM 64.4 °F 62.6 °F 94% 29.69 in 10.0 mi Variable 6.9 mph - N/A   Overcast
3:38 AM 64.4 °F 62.6 °F 94% 29.69 in 10.0 mi South 9.2 mph 19.6 mph N/A   Overcast
3:53 AM 64.0 °F 62.1 °F 93% 29.69 in 10.0 mi South 9.2 mph 18.4 mph N/A   Overcast
4:21 AM 64.4 °F 62.6 °F 94% 29.67 in 10.0 mi South 8.1 mph - N/A   Overcast
4:53 AM 64.9 °F 62.1 °F 90% 29.66 in 10.0 mi South 6.9 mph 16.1 mph N/A   Overcast
5:01 AM 64.4 °F 62.6 °F 94% 29.66 in 10.0 mi South 11.5 mph 18.4 mph N/A   Overcast
5:13 AM 64.4 °F 62.6 °F 94% 29.66 in 10.0 mi South 10.4 mph 18.4 mph 0.00 in Rain Light Rain
5:25 AM 64.4 °F 62.6 °F 94% 29.66 in 10.0 mi South 8.1 mph 18.4 mph 0.00 in   Overcast
5:53 AM 64.9 °F 61.0 °F 87% 29.66 in 10.0 mi South 12.7 mph 23.0 mph 0.00 in   Overcast
6:53 AM 64.9 °F 61.0 °F 87% 29.64 in 10.0 mi South 12.7 mph 20.7 mph N/A   Overcast
7:53 AM 66.0 °F 61.0 °F 84% 29.61 in 10.0 mi South 13.8 mph 21.9 mph N/A   Overcast
8:08 AM 66.2 °F 62.6 °F 88% 29.63 in 1.5 mi South 13.8 mph 25.3 mph 0.12 in Rain , Thunderstorm Rain
8:10 AM 64.4 °F 62.6 °F 94% 29.62 in 0.8 mi SSW 15.0 mph 26.5 mph 0.19 in Rain , Thunderstorm Heavy Rain
8:17 AM 66.2 °F 64.4 °F 94% 29.63 in 0.8 mi SSW 11.5 mph 26.5 mph 0.22 in Rain Rain
8:19 AM 66.2 °F 64.4 °F 94% 29.63 in 1.2 mi SSW 9.2 mph 26.5 mph 0.22 in Rain Light Rain
8:21 AM 66.2 °F 64.4 °F 94% 29.63 in 3.0 mi SSW 16.1 mph 26.5 mph 0.22 in Rain Light Rain
8:25 AM 66.2 °F 62.6 °F 88% 29.63 in 7.0 mi SW 12.7 mph 26.5 mph 0.22 in Rain Light Rain
8:53 AM 64.9 °F 64.0 °F 97% 29.63 in 9.0 mi SSW 6.9 mph - 0.24 in Rain Light Rain
9:53 AM 64.9 °F 63.0 °F 93% 29.64 in 4.0 mi South 5.8 mph - 0.04 in Rain Rain
10:53 AM 64.0 °F 63.0 °F 96% 29.64 in 10.0 mi SSW 6.9 mph - 0.02 in   Overcast
11:53 AM 64.9 °F 62.1 °F 90% 29.65 in 10.0 mi SSW 6.9 mph - N/A   Overcast
12:06 PM 64.4 °F 62.6 °F 94% 29.64 in 10.0 mi SSW 4.6 mph - 0.01 in Rain Light Rain
12:22 PM 64.4 °F 62.6 °F 94% 29.64 in 10.0 mi South 6.9 mph - 0.01 in   Overcast
12:33 PM 64.4 °F 60.8 °F 88% 29.64 in 10.0 mi South 4.6 mph - 0.01 in   Overcast
12:42 PM 64.4 °F 62.6 °F 94% 29.64 in 10.0 mi South 5.8 mph - 0.01 in   Overcast
12:53 PM 64.9 °F 61.0 °F 87% 29.64 in 10.0 mi SSW 6.9 mph - 0.01 in   Overcast
1:23 PM 66.2 °F 60.8 °F 83% 29.63 in 10.0 mi SSE 6.9 mph - N/A   Overcast
1:53 PM 66.9 °F 61.0 °F 81% 29.62 in 10.0 mi SSW 6.9 mph - N/A   Mostly Cloudy
2:53 PM 69.1 °F 61.0 °F 75% 29.61 in 10.0 mi South 8.1 mph - N/A   Mostly Cloudy
3:05 PM 69.8 °F 60.8 °F 73% 29.61 in 10.0 mi Variable 6.9 mph - N/A   Scattered Clouds
3:53 PM 69.1 °F 60.1 °F 73% 29.61 in 10.0 mi SSW 8.1 mph - N/A   Scattered Clouds
4:53 PM 69.1 °F 59.0 °F 70% 29.62 in 10.0 mi SSW 5.8 mph - N/A   Clear
5:53 PM 66.0 °F 57.0 °F 73% 29.63 in 10.0 mi Calm Calm - N/A   Clear
6:53 PM 64.0 °F 54.0 °F 70% 29.67 in 10.0 mi Variable 5.8 mph - N/A   Overcast
7:53 PM 60.1 °F 50.0 °F 69% 29.70 in 10.0 mi Variable 5.8 mph - N/A   Mostly Cloudy
8:53 PM 57.0 °F 46.0 °F 67% 29.73 in 10.0 mi WNW 4.6 mph - N/A   Scattered Clouds
9:53 PM 55.9 °F 45.0 °F 67% 29.75 in 10.0 mi Variable 3.5 mph - N/A   Mostly Cloudy
10:53 PM 53.1 °F 45.0 °F 74% 29.76 in 10.0 mi Variable 3.5 mph - N/A   Clear
11:53 PM 53.1 °F 44.1 °F 71% 29.76 in 10.0 mi WNW 6.9 mph - N/A   Clear